Location: Austin
(30.3000°N, 97.7500°W)
Time: 00:30:03
(UTC-05:00)

Okean O Rocket - Pass Details

Date: 06 May 2026
Orbit: 613 x 635 km, 98.0° (Epoch: 13 May)

Event Time Altitude Azimuth Distance (km) Brightness Sun altitude
Exits shadow 23:26:38 18° 294° (WNW) 1,527 4.1 -34.6°
Drops below altitude 10° 23:28:20 10° 315° (NW) 1,974 4.9 -34.8°
Sets 23:30:56 0° 330° (NNW) 2,880 6.0 -35.2°
